Location: Alphen aan den Rijn
(52.1277°N, 4.6689°E)
Time: 21:43:45
(UTC+02:00)

Tiangong - Visible Passes

Search period start: 19 October 2021 00:00
Search period end: 29 October 2021 00:00
Orbit: 382 x 385 km, 41.5° (Epoch: 19 October)

Date Brightness Start Highest point End Pass type
(mag) Time Alt. Az. Time Alt. Az. Time Alt. Az.
21 Oct 3.6 20:07:53 10° S 20:08:54 11° S 20:09:27 11° SSE visible
22 Oct 3.8 20:43:34 10° SSW 20:44:19 12° SSW 20:44:19 12° SSW visible
23 Oct 3.6 19:43:46 10° SSW 19:45:09 12° S 19:46:32 10° SSE visible
24 Oct 3.7 20:20:01 10° SSW 20:21:15 12° S 20:21:50 11° S visible
25 Oct 3.7 19:19:55 10° SSW 19:21:22 13° S 19:22:49 10° SSE visible
26 Oct 4.0 19:57:05 10° SSW 19:57:25 10° SSW 19:57:45 10° S visible
27 Oct 3.9 18:56:19 10° SSW 18:57:32 12° S 18:58:46 10° SSE visible
